Terminal Aerodrome Forecast
Issued by NWS Northern Indiana

Home | Current Version | Previous Version | Graphics & Text | Print | Product List | Glossary On
Versions: 1 2 3 4 5 6 7 8 9 10 11 12 13 14 15 16 17
000
FTUS43 KIWX 191100
TAFFWA
TAF
KFWA 191135Z 1912/2012 08004KT P6SM SKC
      TEMPO 1912/1913 4SM BR
     FM191500 12010KT P6SM SCT250
     FM200000 15005KT P6SM SKC=

USA.gov is the U.S. government's official web portal to all federal, state and local government web resources and services.